Overview Statistics Trail Chart Weather Telemetry Raw packets
 

This is the latest recevied weather packets stored in our database for station/object DK6MR-13. If no packets are shown the sender has not sent any weather packets the latest 10 day(s).

<< 1 2 3 4 5 6 7 >>
Time Temp. Humidity Pressure Rain* Wind** Luminosity Snow
1778025326 11.11° C 92% 1004.7 hPa 0 mm - - -
1778024425 11.11° C 92% 1004.7 hPa 0 mm - - -
1778023524 11.11° C 92% 1004.7 hPa 0 mm - - -
1778022623 11.67° C 92% 1005.1 hPa 1.78 mm - - -
1778021723 11.67° C 92% 1005.1 hPa 0 mm - - -
1778020822 11.67° C 92% 1005.1 hPa 1.27 mm - - -
1778019921 11.67° C 92% 1005.1 hPa 1.78 mm - - -
1778019020 11.67° C 92% 1005.1 hPa 1.78 mm - - -
1778018119 12.22° C 92% 1005.4 hPa 0 mm - - -
1778017218 12.22° C 92% 1005.4 hPa 1.78 mm - - -
1778016317 12.22° C 92% 1005.4 hPa 1.78 mm - - -
1778015416 12.22° C 92% 1005.7 hPa 3.05 mm - - -
1778014515 12.22° C 92% 1005.4 hPa 1.27 mm - - -
1778013614 12.22° C 92% 1005.4 hPa 1.78 mm - - -
1778012713 12.22° C 92% 1005.4 hPa 1.27 mm - - -
1778011812 12.78° C 92% 1005.4 hPa 1.78 mm - - -
1778010911 12.78° C 92% 1005.4 hPa 3.05 mm - - -
1778010010 12.78° C 92% 1005.1 hPa 3.05 mm - - -
1778009109 12.78° C 92% 1005.1 hPa 3.05 mm - - -
1778008208 12.78° C 92% 1005.1 hPa 4.83 mm - - -
1778007308 12.78° C 92% 1005.1 hPa 4.83 mm - - -
1778006407 12.78° C 91% 1005.1 hPa 3.05 mm - - -
1778005506 13.33° C 91% 1005.1 hPa 6.1 mm - - -
1778004605 13.33° C 91% 1005.1 hPa 6.6 mm - - -
1778003704 13.33° C 91% 1005.1 hPa 6.1 mm - - -

* Rain latest hour (hover to see other rain measurements)
** Current wind speed in m/s (hover to see current wind gust speed)